�N����,����,�~����,�C��,���x,�C��,����,���ϕ���,�ő�u�ԕ���,�ő厞����,���˗�,�I�_���x,�n�����x
"22/08/01","01:00",0.0,27.4,79.0,1007.6,334.8,1.0,2.5,338.6,0.00,23.5,26.1
"22/08/01","02:00",0.0,26.8,80.2,1006.9,328.9,0.6,1.9,331.0,0.00,23.1,26.2
"22/08/01","03:00",0.0,26.5,82.6,1007.4,295.7,0.8,2.1,325.9,0.00,23.3,26.3
"22/08/01","04:00",0.0,26.1,84.7,1007.6,294.2,1.0,1.8,342.8,0.00,23.4,26.2
"22/08/01","05:00",0.0,25.5,86.3,1007.6,323.1,0.8,1.8,345.9,0.00,23.1,25.8
"22/08/01","06:00",0.0,24.6,88.6,1007.8,298.0,0.6,1.6,347.7,0.00,22.6,25.9
"22/08/01","07:00",0.0,26.5,89.3,1007.8,348.8,0.6,1.7,325.8,0.09,24.6,25.4
"22/08/01","08:00",0.0,31.2,70.5,1007.8,33.4,0.3,1.4,12.6,0.73,25.2,25.8
"22/08/01","09:00",0.0,32.4,65.8,1009.3,116.9,0.7,2.4,129.2,1.56,25.2,25.8
"22/08/01","10:00",0.0,33.0,65.9,1009.5,161.6,1.6,4.8,212.0,2.35,25.8,26.1
"22/08/01","11:00",0.0,34.3,58.9,1009.3,170.8,2.2,4.4,226.9,2.87,25.1,26.2
"22/08/01","12:00",0.0,35.3,56.9,1009.3,290.2,1.2,4.3,131.6,3.27,25.5,26.3
"22/08/01","13:00",0.0,36.0,55.6,1008.8,249.3,1.3,4.3,345.6,2.99,25.8,26.7
"22/08/01","14:00",0.0,36.0,53.2,1008.8,289.3,1.6,5.1,224.2,3.12,25.0,26.9
"22/08/01","15:00",0.0,36.0,52.5,1008.1,210.9,2.2,5.1,189.3,3.09,24.8,27.2
"22/08/01","16:00",0.0,35.3,53.8,1007.4,246.0,2.2,5.2,245.2,2.43,24.6,27.3
"22/08/01","17:00",0.0,34.8,51.2,1007.1,230.0,2.3,5.9,229.7,1.54,23.3,27.2
"22/08/01","18:00",0.0,34.3,50.7,1006.7,330.4,1.7,4.5,220.4,0.83,22.7,27.2
"22/08/01","19:00",0.0,32.4,52.7,1006.2,333.7,1.0,3.7,350.0,0.03,21.5,27.4
"22/08/01","20:00",0.0,30.9,58.7,1005.5,0.4,0.7,3.1,338.0,0.00,21.9,27.2
"22/08/01","21:00",0.0,28.6,67.6,1006.4,339.8,1.0,2.5,351.5,0.00,22.1,27.1
"22/08/01","22:00",0.0,27.0,75.4,1007.4,344.7,1.5,2.8,339.5,0.00,22.3,26.9
"22/08/01","23:00",0.0,26.4,76.6,1007.6,309.4,1.1,2.2,340.7,0.00,22.0,26.7
"22/08/01","24:00",0.0,25.9,79.0,1007.8,334.3,1.5,2.2,346.2,0.00,22.0,26.6
"22/08/02","01:00",0.0,26.0,77.8,1008.1,321.3,1.0,2.8,318.5,0.00,21.9,26.2
"22/08/02","02:00",0.0,25.6,79.3,1007.4,302.5,0.7,2.5,347.7,0.00,21.8,26.2
"22/08/02","03:00",0.0,25.4,81.2,1007.6,333.9,1.5,2.2,320.8,0.00,22.0,26.0
"22/08/02","04:00",0.0,25.7,81.4,1007.4,326.3,1.8,3.3,340.6,0.00,22.3,25.7
"22/08/02","05:00",0.0,25.1,84.4,1008.6,306.3,1.2,2.6,328.8,0.00,22.3,25.6
"22/08/02","06:00",0.0,24.5,86.9,1009.0,319.9,1.1,2.1,326.9,0.00,22.2,25.6
"22/08/02","07:00",0.0,26.2,86.6,1008.8,316.8,1.0,2.5,333.0,0.08,23.8,25.6
"22/08/02","08:00",0.0,30.6,71.3,1008.8,4.8,0.6,1.9,23.2,0.77,24.8,25.6
"22/08/02","09:00",0.0,31.1,69.2,1009.7,171.1,0.7,1.9,14.8,1.40,24.8,25.7
"22/08/02","10:00",0.0,32.9,64.2,1010.7,157.5,1.2,3.1,241.0,2.17,25.3,26.0
"22/08/02","11:00",0.0,34.4,60.6,1010.9,203.3,1.1,3.6,202.8,2.91,25.7,26.2
"22/08/02","12:00",0.0,35.1,58.0,1010.0,165.9,1.3,3.9,226.7,2.91,25.6,26.4
"22/08/02","13:00",0.0,35.9,53.3,1010.0,205.1,1.7,4.4,196.3,3.27,25.0,26.7
"22/08/02","14:00",0.0,37.3,49.0,1009.5,220.5,1.5,4.8,215.2,3.43,24.8,26.9
"22/08/02","15:00",0.0,37.8,46.3,1009.0,339.8,1.6,4.4,346.9,3.11,24.3,27.2
"22/08/02","16:00",0.0,37.5,48.4,1007.8,288.1,1.2,5.2,230.8,2.37,24.8,27.3
"22/08/02","17:00",0.0,36.1,52.8,1007.8,230.7,2.3,5.7,233.2,1.63,25.0,27.3
"22/08/02","18:00",0.0,35.3,52.2,1006.9,243.8,1.7,5.4,224.6,0.78,24.1,27.5
"22/08/02","19:00",0.0,33.5,56.9,1006.0,317.1,1.2,5.1,220.7,0.11,23.8,27.6
"22/08/02","20:00",0.0,31.5,64.9,1005.2,342.0,1.2,3.5,342.1,0.00,24.1,27.4
"22/08/02","21:00",0.0,29.7,72.7,1004.8,321.9,1.1,2.9,349.6,0.00,24.3,27.4
"22/08/02","22:00",0.0,28.8,76.2,1006.0,331.0,1.5,3.1,347.4,0.00,24.2,27.1
"22/08/02","23:00",0.0,28.3,77.4,1006.2,329.1,1.1,2.8,343.4,0.00,24.0,27.0
"22/08/02","24:00",0.0,27.0,80.8,1006.4,322.7,0.7,2.6,348.8,0.00,23.5,26.8
"22/08/03","01:00",0.0,26.6,82.5,1006.0,346.2,1.6,2.7,350.4,0.00,23.4,26.6
"22/08/03","02:00",0.0,26.0,84.3,1005.7,335.9,1.7,3.4,339.8,0.00,23.2,26.6
"22/08/03","03:00",0.0,25.9,84.4,1006.4,335.7,1.7,3.2,346.7,0.00,23.1,26.1
"22/08/03","04:00",0.0,25.2,85.7,1006.7,322.7,1.0,2.8,341.5,0.00,22.7,26.2
"22/08/03","05:00",0.0,25.0,87.1,1006.7,339.9,1.5,2.7,349.5,0.00,22.7,26.2
"22/08/03","06:00",0.0,24.8,88.0,1007.1,329.6,1.7,3.4,334.3,0.00,22.7,25.8
"22/08/03","07:00",0.0,26.7,86.9,1007.6,350.9,0.5,3.5,343.5,0.08,24.4,25.7
"22/08/03","08:00",0.0,30.7,70.8,1007.6,21.2,0.7,1.6,28.5,0.68,24.8,25.8
"22/08/03","09:00",0.0,32.2,65.5,1008.3,33.3,0.8,2.1,356.5,1.55,25.0,26.1
"22/08/03","10:00",0.0,34.3,60.6,1008.6,143.1,0.8,2.2,117.1,2.33,25.6,26.3
"22/08/03","11:00",0.0,34.7,56.8,1007.8,220.8,2.1,5.0,216.6,2.90,24.9,26.5
"22/08/03","12:00",0.0,35.8,55.0,1007.4,300.4,1.2,5.2,197.5,3.28,25.4,26.6
"22/08/03","13:00",0.0,36.2,52.3,1006.4,337.8,1.3,5.0,237.0,3.06,24.9,26.8
"22/08/03","14:00",0.0,37.2,47.3,1006.2,300.4,1.5,6.2,347.7,3.46,24.1,27.3
"22/08/03","15:00",0.0,36.5,50.7,1005.2,234.7,2.1,6.6,217.7,2.39,24.7,27.6
"22/08/03","16:00",0.0,32.5,62.8,1003.8,349.3,2.5,8.6,2.9,1.18,24.5,27.6
"22/08/03","17:00",0.0,28.5,80.6,1002.4,331.0,1.6,5.1,26.9,0.05,24.9,27.4
"22/08/03","18:00",5.0,27.5,87.4,1003.4,351.9,1.1,2.8,349.9,0.01,25.3,27.2
"22/08/03","19:00",0.0,27.5,90.3,1003.4,357.5,1.0,2.7,341.3,0.13,25.8,27.2
"22/08/03","20:00",0.0,27.0,91.8,1004.3,338.6,1.6,2.7,338.5,0.00,25.6,27.1
"22/08/03","21:00",0.0,26.9,92.9,1004.1,336.7,1.2,2.9,322.6,0.00,25.7,27.1
"22/08/03","22:00",0.0,26.5,93.6,1004.3,331.2,1.0,2.2,334.2,0.00,25.4,27.0
"22/08/03","23:00",0.0,26.2,94.3,1004.3,333.3,1.7,2.9,335.8,0.00,25.3,26.9
"22/08/03","24:00",0.0,25.8,94.8,1004.3,337.1,1.5,2.9,345.9,0.00,24.9,26.8
"22/08/04","01:00",0.0,25.7,95.1,1004.1,348.6,1.5,2.8,346.1,0.00,24.9,26.9
"22/08/04","02:00",0.0,25.4,95.0,1003.6,336.1,1.5,2.8,342.7,0.00,24.6,26.5
"22/08/04","03:00",0.0,25.3,94.5,1003.6,332.7,1.5,3.1,328.9,0.00,24.4,26.6
"22/08/04","04:00",0.0,25.7,94.1,1003.6,332.0,2.2,3.3,338.6,0.00,24.7,26.4
"22/08/04","05:00",0.0,25.9,93.5,1004.1,336.9,2.3,3.7,324.5,0.00,24.8,26.3
"22/08/04","06:00",0.0,26.1,93.3,1003.8,330.5,2.0,4.7,343.5,0.00,25.0,26.3
"22/08/04","07:00",0.0,26.5,93.1,1004.1,326.5,1.3,3.5,347.3,0.06,25.3,26.3
"22/08/04","08:00",0.0,26.7,92.2,1004.5,350.9,1.0,2.6,342.4,0.10,25.4,26.2
"22/08/04","09:00",0.0,28.4,88.1,1003.6,0.0,0.8,2.0,346.4,0.64,26.3,26.3
"22/08/04","10:00",0.0,30.3,78.4,1003.8,317.9,1.2,2.8,355.3,1.06,26.2,26.5
"22/08/04","11:00",0.0,31.0,75.2,1003.6,305.3,0.7,3.3,354.8,1.00,26.1,26.4
"22/08/04","12:00",0.0,29.8,72.2,1003.1,239.1,2.2,5.6,207.1,1.30,24.3,26.6
"22/08/04","13:00",2.0,28.6,82.3,1000.8,16.1,1.2,3.5,40.6,1.24,25.3,26.7
"22/08/04","14:00",0.0,33.9,67.5,1003.1,46.6,1.0,2.9,355.4,2.78,27.1,26.8
"22/08/04","15:00",0.0,34.9,63.4,1002.2,158.1,1.1,2.8,45.7,3.06,27.0,27.2
"22/08/04","16:00",0.0,31.8,71.2,1000.0,271.7,0.7,5.2,215.7,1.03,26.0,27.3
"22/08/04","17:00",0.0,26.5,84.0,1001.0,343.7,1.5,7.2,0.5,0.00,23.6,27.3
"22/08/04","18:00",0.0,27.0,84.4,1001.7,339.1,1.5,3.6,351.8,0.07,24.2,26.9
"22/08/04","19:00",0.6,26.7,87.9,1001.5,350.7,1.1,2.9,344.4,0.11,24.6,27.0
"22/08/04","20:00",0.2,25.8,90.4,1001.5,301.6,0.7,1.9,348.5,0.00,24.1,26.8
"22/08/04","21:00",0.0,25.6,92.0,1001.9,310.8,0.7,1.9,354.9,0.00,24.2,26.9
"22/08/04","22:00",0.2,25.6,92.8,1002.6,340.5,1.1,2.2,305.1,0.00,24.4,26.7
"22/08/04","23:00",0.0,25.1,93.5,1001.5,335.8,1.0,2.2,354.9,0.00,24.0,26.7
"22/08/04","24:00",0.0,24.9,94.0,1001.7,306.5,0.7,1.9,343.8,0.00,23.9,26.6
"22/08/05","01:00",0.0,24.8,94.3,1001.5,322.9,1.0,2.5,347.6,0.00,23.9,26.7
"22/08/05","02:00",0.0,24.7,94.7,1001.2,335.1,1.2,3.3,346.5,0.00,23.8,26.4
"22/08/05","03:00",0.0,24.2,94.9,1000.8,343.5,1.0,2.6,322.5,0.00,23.4,26.4
"22/08/05","04:00",0.0,24.5,95.2,1000.8,348.8,1.0,2.1,335.8,0.00,23.7,26.1
"22/08/05","05:00",0.0,24.5,95.3,1001.2,295.5,1.0,3.4,340.8,0.00,23.7,25.8
"22/08/05","06:00",0.0,24.6,95.3,1001.7,326.4,1.5,2.7,355.8,0.00,23.8,26.0
"22/08/05","07:00",0.0,25.0,95.2,1001.5,355.2,1.0,2.9,256.2,0.02,24.2,26.0
"22/08/05","08:00",0.0,25.4,94.7,1001.9,324.8,1.5,2.2,330.2,0.08,24.5,25.9
"22/08/05","09:00",0.0,25.7,93.7,1001.7,332.1,1.2,4.2,345.1,0.13,24.6,25.8
"22/08/05","10:00",1.2,26.1,92.9,1001.9,78.0,0.2,2.2,352.2,0.18,24.9,25.9
"22/08/05","11:00",0.0,26.3,92.2,1001.9,326.1,0.8,1.4,340.5,0.21,25.0,25.8
"22/08/05","12:00",0.0,26.9,91.7,1001.7,333.8,1.6,3.9,326.4,0.32,25.5,26.1
"22/08/05","13:00",0.2,30.7,80.8,1001.7,169.5,0.7,2.6,347.9,1.99,27.1,26.0
"22/08/05","14:00",0.0,31.5,71.1,1001.2,127.4,1.1,2.8,206.1,2.75,25.7,26.3
"22/08/05","15:00",0.0,33.4,63.1,1000.8,46.0,0.8,3.1,124.7,2.25,25.5,26.4
"22/08/05","16:00",0.0,31.9,67.8,1000.3,344.5,1.0,2.1,329.5,1.19,25.2,26.7
"22/08/05","17:00",0.0,30.2,71.4,999.6,234.6,2.1,4.8,235.8,0.76,24.5,26.8
"22/08/05","18:00",7.4,28.7,83.3,998.6,158.8,0.6,4.5,235.9,0.69,25.6,26.8
"22/08/05","19:00",0.0,27.8,85.8,999.6,14.2,0.5,2.4,151.8,0.19,25.2,26.8
"22/08/05","20:00",0.0,26.7,89.4,1000.3,347.3,1.2,3.3,345.6,0.01,24.8,26.6
"22/08/05","21:00",0.0,26.1,91.5,1000.8,301.8,1.1,2.1,321.8,0.00,24.6,26.4
"22/08/05","22:00",0.0,25.5,92.8,1001.5,300.9,1.0,2.1,324.0,0.00,24.3,26.6
"22/08/05","23:00",0.0,25.5,93.5,1001.5,324.9,1.1,2.5,343.4,0.00,24.4,26.5
"22/08/05","24:00",0.0,25.0,94.1,1002.2,301.3,0.7,1.6,323.7,0.00,24.0,26.3
"22/08/06","01:00",0.0,24.6,94.5,1001.7,308.2,0.8,1.8,322.7,0.00,23.7,26.3
"22/08/06","02:00",0.0,24.5,94.9,1001.9,322.9,0.8,1.7,325.0,0.00,23.7,26.0
"22/08/06","03:00",0.0,24.4,95.1,1001.7,297.8,0.7,1.8,324.1,0.00,23.6,26.0
"22/08/06","04:00",0.0,24.1,95.5,1001.9,271.5,0.7,1.8,344.8,0.00,23.4,26.0
"22/08/06","05:00",0.0,23.8,95.7,1002.2,277.0,0.7,1.4,318.7,0.00,23.1,25.9
"22/08/06","06:00",0.0,24.2,95.8,1002.6,277.1,0.6,1.4,325.2,0.00,23.5,25.6
"22/08/06","07:00",0.0,24.8,95.9,1002.9,333.4,1.2,2.6,334.3,0.04,24.1,25.4
"22/08/06","08:00",0.0,26.0,95.5,1002.4,224.2,0.2,2.5,339.5,0.24,25.3,25.7
"22/08/06","09:00",0.0,26.8,94.7,1002.4,308.8,0.3,1.7,238.4,0.47,25.9,25.6
"22/08/06","10:00",0.0,31.5,78.2,1004.3,19.0,0.5,2.6,55.2,2.33,27.3,25.8
"22/08/06","11:00",0.0,32.9,64.9,1004.5,151.3,1.2,3.5,148.0,2.88,25.5,25.9
"22/08/06","12:00",0.0,31.5,68.0,1002.9,202.8,0.8,4.7,177.1,1.76,24.9,26.3
"22/08/06","13:00",0.0,33.9,65.5,1003.1,142.4,1.2,4.5,198.8,2.39,26.6,26.4
"22/08/06","14:00",0.0,32.4,67.5,1002.2,85.2,0.8,5.1,93.4,1.93,25.6,26.7
"22/08/06","15:00",0.0,30.8,71.4,1001.7,157.3,2.7,8.7,189.7,1.53,25.1,26.8
"22/08/06","16:00",0.0,32.7,64.8,1002.2,127.9,1.1,4.4,151.4,1.75,25.2,26.7
"22/08/06","17:00",0.0,31.7,69.6,1001.7,73.8,0.7,2.5,124.5,0.61,25.5,26.8
"22/08/06","18:00",0.0,30.1,73.8,1000.5,83.8,1.0,3.6,96.4,0.24,24.9,26.8
"22/08/06","19:00",0.0,29.7,75.0,1000.8,61.6,0.7,2.6,24.3,0.07,24.8,26.8
"22/08/06","20:00",0.0,27.7,82.5,1002.2,356.7,0.7,2.2,27.3,0.00,24.5,26.8
"22/08/06","21:00",0.0,26.5,86.2,1002.6,291.8,0.7,1.8,341.3,0.00,24.0,26.8
"22/08/06","22:00",0.0,27.0,85.2,1003.6,338.6,0.8,2.2,315.9,0.00,24.3,26.6
"22/08/06","23:00",0.0,26.7,84.9,1003.6,329.8,0.8,2.1,347.6,0.00,24.0,26.6
"22/08/06","24:00",0.0,26.3,87.6,1004.1,309.0,0.5,1.8,327.8,0.00,24.1,26.6
"22/08/07","01:00",0.0,26.6,86.5,1003.6,282.0,0.6,1.7,325.0,0.00,24.2,26.4
"22/08/07","02:00",0.0,25.6,87.8,1003.6,271.9,0.6,1.7,314.8,0.00,23.5,26.2
"22/08/07","03:00",0.0,25.0,89.8,1003.6,309.6,0.6,1.7,298.7,0.00,23.2,26.2
"22/08/07","04:00",0.0,25.2,91.0,1003.6,325.9,0.8,1.8,341.8,0.00,23.7,26.0
"22/08/07","05:00",0.0,24.7,91.7,1004.3,331.7,0.1,1.3,346.6,0.00,23.3,25.9
"22/08/07","06:00",0.0,24.9,92.5,1004.8,307.4,0.8,1.6,314.5,0.00,23.6,26.1
"22/08/07","07:00",0.0,26.0,92.7,1004.8,313.3,0.6,1.3,339.1,0.05,24.8,25.8
"22/08/07","08:00",0.0,27.1,89.6,1005.2,262.9,0.6,1.3,346.2,0.43,25.3,25.8
"22/08/07","09:00",0.0,29.0,80.4,1005.0,177.5,1.0,2.6,200.0,0.71,25.3,25.8
"22/08/07","10:00",0.0,32.1,67.6,1006.9,267.9,0.3,2.1,131.6,1.81,25.4,26.1
"22/08/07","11:00",0.0,33.4,64.5,1006.7,63.3,0.8,2.0,97.4,1.84,25.8,26.1
"22/08/07","12:00",0.0,34.3,60.4,1006.9,173.6,1.3,3.1,185.6,3.41,25.6,26.4
"22/08/07","13:00",0.0,35.2,56.5,1006.4,268.7,1.1,3.4,222.9,3.23,25.3,26.8
"22/08/07","14:00",0.0,33.7,60.4,1005.2,79.8,1.0,3.5,100.3,2.26,25.0,27.1
"22/08/07","15:00",0.0,34.3,58.7,1005.0,84.2,1.1,2.7,164.9,1.92,25.1,27.2
"22/08/07","16:00",0.0,34.8,57.1,1004.1,139.4,1.3,3.2,7.3,1.66,25.1,27.3
"22/08/07","17:00",0.0,35.2,57.4,1004.1,86.7,0.8,2.8,144.7,1.53,25.5,27.6
"22/08/07","18:00",0.0,33.0,63.9,1003.8,119.0,1.5,3.3,117.1,0.56,25.3,27.4
"22/08/07","19:00",0.0,30.0,74.3,1003.1,52.6,0.3,7.9,151.8,0.13,25.0,27.4
"22/08/07","20:00",0.0,28.2,80.9,1003.8,314.4,1.1,2.6,347.6,0.01,24.6,27.3
"22/08/07","21:00",0.0,26.8,86.2,1005.5,332.4,1.1,2.5,343.2,0.00,24.3,27.2
"22/08/07","22:00",0.0,26.3,88.6,1006.2,336.0,1.1,2.1,323.1,0.00,24.3,27.2
"22/08/07","23:00",0.0,25.9,89.9,1006.0,324.5,1.3,2.2,324.3,0.00,24.2,26.9
"22/08/07","24:00",0.0,25.6,90.7,1005.5,342.3,1.0,2.9,345.3,0.00,24.0,26.7
"22/08/08","01:00",0.0,25.6,91.5,1005.7,297.9,0.6,2.4,337.5,0.00,24.2,26.7
"22/08/08","02:00",0.0,25.7,91.7,1005.7,338.8,1.1,1.7,339.0,0.00,24.3,26.5
"22/08/08","03:00",0.0,25.5,92.1,1005.2,333.3,0.8,1.8,343.1,0.00,24.2,26.3
"22/08/08","04:00",0.0,25.4,92.6,1005.2,308.6,0.8,1.7,339.6,0.00,24.2,26.3
"22/08/08","05:00",0.0,25.0,93.0,1005.5,322.6,0.3,1.7,348.1,0.00,23.8,26.2
"22/08/08","06:00",0.0,24.7,93.5,1006.2,302.6,0.7,1.4,307.7,0.00,23.6,26.2
"22/08/08","07:00",0.0,26.6,93.7,1005.7,308.0,0.3,1.4,319.6,0.08,25.5,26.0
"22/08/08","08:00",0.0,29.1,87.6,1006.0,33.0,0.6,1.6,358.5,0.63,26.9,25.9
"22/08/08","09:00",0.0,30.4,75.6,1007.1,157.4,1.1,3.3,197.6,1.41,25.6,26.2
"22/08/08","10:00",0.0,32.9,68.8,1008.3,151.1,1.5,3.3,125.1,2.34,26.4,26.3
"22/08/08","11:00",0.0,32.2,66.4,1007.8,197.5,1.7,4.4,229.4,2.36,25.2,26.3
"22/08/08","12:00",0.0,33.8,60.8,1007.4,147.4,1.8,6.0,212.3,2.35,25.2,26.5
"22/08/08","13:00",0.0,35.2,56.1,1007.1,179.1,2.5,7.7,216.8,3.21,25.2,27.1
"22/08/08","14:00",0.0,36.1,53.1,1006.7,213.4,1.7,6.3,194.0,3.02,25.1,27.1
"22/08/08","15:00",0.0,35.1,54.5,1005.7,255.8,1.6,6.2,210.4,1.97,24.6,27.2
"22/08/08","16:00",0.0,35.5,54.1,1005.5,249.6,1.6,5.0,203.4,2.21,24.8,27.3
"22/08/08","17:00",0.0,34.0,59.3,1004.5,250.3,1.1,4.7,240.7,1.13,25.0,27.6
"22/08/08","18:00",0.0,33.4,62.7,1004.5,236.5,1.5,3.7,222.5,0.50,25.3,27.5
"22/08/08","19:00",0.0,32.1,66.2,1004.3,241.7,1.5,4.2,236.3,0.15,25.0,27.1
"22/08/08","20:00",0.0,30.0,74.1,1004.1,318.1,0.3,4.1,231.7,0.00,24.9,27.3
"22/08/08","21:00",0.0,28.5,79.7,1004.8,336.5,1.2,2.4,346.6,0.00,24.7,27.1
"22/08/08","22:00",0.0,27.2,83.5,1005.0,324.4,1.0,2.4,354.8,0.00,24.2,27.1
"22/08/08","23:00",0.0,26.8,82.5,1005.0,320.6,0.8,3.3,344.5,0.00,23.6,26.9
"22/08/08","24:00",0.0,26.1,85.9,1005.5,305.1,0.8,1.7,333.7,0.00,23.6,26.7
"22/08/09","01:00",0.0,26.6,85.9,1005.5,345.4,0.8,1.9,303.9,0.00,24.1,26.6
"22/08/09","02:00",0.0,26.4,86.8,1005.5,354.2,1.0,2.0,328.2,0.00,24.1,26.5
"22/08/09","03:00",0.0,26.0,88.7,1005.2,324.0,1.2,2.1,347.8,0.00,24.0,26.3
"22/08/09","04:00",0.0,25.5,89.9,1005.5,316.5,0.7,1.4,344.4,0.00,23.8,26.1
"22/08/09","05:00",0.0,25.1,91.2,1006.0,288.1,0.7,1.8,2.3,0.00,23.6,26.1
"22/08/09","06:00",0.0,24.8,91.8,1006.2,271.9,0.6,1.9,329.7,0.00,23.4,26.2
"22/08/09","07:00",0.0,26.5,92.1,1006.2,319.9,0.5,1.6,342.2,0.08,25.2,26.1
"22/08/09","08:00",0.0,29.6,84.4,1006.2,4.0,0.6,1.4,359.7,0.63,26.7,25.8
"22/08/09","09:00",0.0,30.1,77.0,1006.9,160.7,0.7,2.0,227.0,0.98,25.7,26.1
"22/08/09","10:00",0.0,32.2,71.1,1007.4,128.2,1.3,3.2,135.5,1.39,26.3,26.0
"22/08/09","11:00",0.0,32.8,66.5,1007.4,336.2,1.2,2.9,324.1,2.07,25.8,26.4
"22/08/09","12:00",0.0,33.9,64.9,1006.7,304.9,0.6,4.2,237.0,1.49,26.4,26.5
"22/08/09","13:00",0.0,34.8,60.9,1006.0,236.8,0.8,4.9,214.9,1.26,26.2,26.8
"22/08/09","14:00",0.0,35.8,53.5,1006.0,199.5,1.5,4.8,238.4,2.37,24.9,27.0
"22/08/09","15:00",0.0,36.1,48.1,1005.7,234.4,2.0,5.7,231.6,2.74,23.4,27.2
"22/08/09","16:00",0.0,35.9,49.6,1005.5,222.3,1.1,5.2,206.2,1.86,23.8,27.2
"22/08/09","17:00",0.0,36.3,47.4,1005.2,234.9,1.5,3.7,231.4,1.46,23.4,27.1
"22/08/09","18:00",0.0,34.6,53.4,1004.1,230.5,1.5,4.5,239.0,0.77,23.8,27.3
"22/08/09","19:00",0.0,32.4,63.2,1003.4,271.0,0.6,4.3,230.7,0.14,24.5,27.5
"22/08/09","20:00",0.0,30.4,69.8,1002.6,273.2,0.6,3.5,236.7,0.00,24.3,27.4
"22/08/09","21:00",0.0,29.7,69.5,1003.8,296.8,1.0,3.2,317.5,0.00,23.6,27.2
"22/08/09","22:00",0.0,28.5,73.3,1004.8,341.1,0.8,2.9,317.0,0.00,23.3,27.0
"22/08/09","23:00",0.0,28.1,76.5,1005.0,344.6,1.1,2.8,339.6,0.00,23.6,26.8
"22/08/09","24:00",0.0,28.0,79.7,1004.8,317.7,1.0,2.2,346.4,0.00,24.2,26.6
"22/08/10","01:00",0.0,28.4,78.8,1004.8,304.0,1.3,5.4,5.4,0.00,24.4,26.7
"22/08/10","02:00",0.0,28.0,80.1,1004.5,322.5,1.2,2.9,297.5,0.00,24.3,26.6
"22/08/10","03:00",0.0,26.5,83.8,1004.1,311.7,0.8,1.8,253.1,0.00,23.6,26.5
"22/08/10","04:00",0.0,26.0,86.5,1004.3,320.3,0.7,1.8,342.3,0.00,23.6,26.4
"22/08/10","05:00",0.0,25.6,88.6,1004.3,335.8,0.8,1.9,311.0,0.00,23.6,26.4
"22/08/10","06:00",0.0,25.3,89.8,1004.8,317.1,0.6,1.4,334.4,0.00,23.5,26.2
"22/08/10","07:00",0.0,26.8,90.4,1004.8,290.5,0.2,1.8,321.1,0.08,25.1,26.0
"22/08/10","08:00",0.0,30.2,79.1,1005.2,162.9,0.6,1.8,137.8,0.73,26.2,26.1
"22/08/10","09:00",0.0,31.6,70.5,1006.4,155.0,1.3,3.6,207.0,1.61,25.6,25.9
"22/08/10","10:00",0.0,31.9,66.3,1006.4,160.4,1.5,4.2,128.0,1.71,24.9,26.4
"22/08/10","11:00",0.0,32.9,60.6,1005.7,230.1,2.2,6.0,219.5,1.48,24.3,26.6
"22/08/10","12:00",0.0,35.3,52.7,1006.4,217.5,1.1,6.6,237.3,3.36,24.2,26.7
"22/08/10","13:00",0.0,35.4,49.8,1006.4,277.4,1.6,5.4,210.4,3.44,23.4,26.9
"22/08/10","14:00",0.0,36.1,51.1,1005.5,199.4,1.2,5.6,223.1,2.64,24.4,27.3
"22/08/10","15:00",0.0,34.9,51.6,1005.0,238.1,1.6,4.5,230.9,2.18,23.5,27.2
"22/08/10","16:00",0.0,36.4,48.3,1005.2,207.6,1.2,4.5,235.7,2.02,23.8,27.6
"22/08/10","17:00",0.0,35.2,52.3,1005.0,199.7,1.8,6.6,186.1,1.16,24.0,27.6
"22/08/10","18:00",0.0,33.4,58.2,1004.3,236.8,0.8,3.5,236.9,0.33,24.1,27.5
"22/08/10","19:00",0.0,31.6,66.9,1003.4,58.9,0.3,2.8,219.9,0.07,24.7,27.6
"22/08/10","20:00",0.0,29.5,75.6,1003.1,343.6,0.6,1.9,326.7,0.00,24.8,27.3
"22/08/10","21:00",0.0,28.4,79.7,1004.3,331.2,0.7,2.0,343.8,0.00,24.6,27.1
"22/08/10","22:00",0.0,27.5,82.6,1004.8,332.2,0.8,1.8,347.5,0.00,24.3,27.1
"22/08/10","23:00",0.0,26.6,85.1,1004.8,322.0,1.2,1.9,339.4,0.00,23.9,26.8
"22/08/10","24:00",0.0,26.2,86.7,1005.2,291.5,0.7,1.9,336.7,0.00,23.8,26.9
"22/08/11","01:00",0.0,26.3,86.3,1005.0,296.7,0.7,2.0,330.3,0.00,23.9,26.7
"22/08/11","02:00",0.0,26.5,86.2,1004.5,329.5,0.8,1.7,332.0,0.00,24.0,26.7
"22/08/11","03:00",0.0,26.2,86.6,1004.3,296.9,0.7,1.9,318.1,0.00,23.8,26.4
"22/08/11","04:00",0.0,25.9,87.2,1003.6,303.6,0.7,1.7,333.7,0.00,23.6,26.5
"22/08/11","05:00",0.0,25.1,88.2,1004.3,300.8,0.5,1.9,342.1,0.00,23.0,26.3
"22/08/11","06:00",0.0,25.2,89.6,1004.3,316.7,1.1,1.8,330.9,0.00,23.4,26.1
"22/08/11","07:00",0.0,25.8,90.1,1004.5,306.1,1.1,1.8,326.7,0.03,24.1,26.2
"22/08/11","08:00",0.0,28.1,87.4,1004.1,321.3,0.6,1.4,331.5,0.35,25.8,26.2
"22/08/11","09:00",0.0,32.1,71.7,1005.2,46.3,0.7,1.8,339.6,1.44,26.4,26.3
"22/08/11","10:00",0.0,31.1,72.1,1004.8,189.9,1.3,4.0,232.7,1.34,25.5,26.4
"22/08/11","11:00",0.0,33.3,63.7,1005.7,200.6,2.0,4.2,208.9,1.76,25.5,26.6
"22/08/11","12:00",0.0,34.0,57.8,1005.5,189.8,1.1,4.4,200.0,2.77,24.5,26.8
"22/08/11","13:00",0.0,34.9,50.2,1005.2,181.5,1.7,5.7,236.1,2.69,23.0,27.0
"22/08/11","14:00",0.0,36.0,49.3,1005.0,146.3,1.5,5.5,208.6,3.38,23.7,27.2
"22/08/11","15:00",0.0,37.4,39.4,1004.8,191.4,1.8,5.1,209.7,2.84,21.3,27.5
"22/08/11","16:00",0.0,36.8,40.4,1003.8,224.0,2.0,5.4,218.4,2.40,21.2,27.7
"22/08/11","17:00",0.0,36.2,44.1,1003.4,196.9,1.6,4.8,234.9,1.57,22.1,27.7
"22/08/11","18:00",0.0,35.0,43.4,1002.9,249.4,1.6,4.5,209.1,0.62,20.7,27.7
"22/08/11","19:00",0.0,32.2,50.5,1001.5,144.3,0.6,4.0,239.9,0.05,20.7,27.7
"22/08/11","20:00",0.0,29.6,63.9,1001.2,357.3,0.7,2.1,359.4,0.00,22.1,27.5
"22/08/11","21:00",0.0,28.6,68.9,1002.4,324.4,1.0,2.6,349.9,0.00,22.4,27.2
"22/08/11","22:00",0.0,29.3,64.8,1002.9,336.1,1.3,3.5,316.9,0.00,22.0,27.2
"22/08/11","23:00",0.0,29.1,73.2,1002.4,324.1,1.3,2.5,347.2,0.00,23.8,26.9
"22/08/11","24:00",0.6,26.9,83.3,1002.4,349.3,0.7,2.9,345.1,0.00,23.9,26.8
"22/08/12","01:00",0.0,26.5,88.5,1002.6,334.7,0.3,1.6,347.3,0.00,24.5,26.8
"22/08/12","02:00",0.0,26.1,90.3,1002.2,317.7,1.0,1.7,341.8,0.00,24.4,26.7
"22/08/12","03:00",0.0,26.1,91.3,1002.2,341.7,1.0,1.2,350.6,0.00,24.6,26.7
"22/08/12","04:00",0.0,25.7,92.1,1001.9,302.0,1.1,1.8,341.5,0.00,24.4,26.5
"22/08/12","05:00",0.0,25.6,92.5,1002.6,275.2,0.5,2.0,328.1,0.00,24.3,26.4
"22/08/12","06:00",0.0,25.6,93.0,1002.9,305.0,1.0,1.6,332.7,0.00,24.4,26.4
"22/08/12","07:00",0.0,26.2,93.2,1002.4,318.3,1.1,1.4,324.9,0.02,25.1,26.2
"22/08/12","08:00",0.0,27.3,92.6,1002.6,336.2,1.0,2.1,329.5,0.24,26.0,26.3
"22/08/12","09:00",0.0,30.1,82.3,1002.6,110.9,0.5,1.8,327.9,0.94,26.8,26.3
"22/08/12","10:00",0.0,31.2,72.8,1003.1,166.4,1.6,3.4,201.6,1.36,25.8,26.4
"22/08/12","11:00",0.0,31.5,68.9,1003.4,176.3,1.5,4.0,227.1,1.38,25.1,26.5
"22/08/12","12:00",0.0,32.6,64.4,1003.6,216.4,0.5,3.3,217.7,1.16,25.0,26.7
"22/08/12","13:00",0.0,32.6,67.8,1003.1,241.2,1.2,3.9,215.6,1.48,25.9,26.8
"22/08/12","14:00",0.0,34.7,59.3,1002.9,220.0,1.2,4.1,214.0,2.72,25.6,26.9
"22/08/12","15:00",0.0,34.0,58.9,1002.6,234.1,1.7,3.7,180.9,2.13,24.9,27.3
"22/08/12","16:00",0.0,35.1,56.1,1002.2,196.8,1.0,3.7,222.4,1.80,25.1,27.4
"22/08/12","17:00",0.0,32.8,65.5,1001.2,53.9,1.0,3.3,10.8,0.94,25.5,27.5
"22/08/12","18:00",1.6,29.7,80.3,999.6,195.7,1.5,3.5,200.3,0.20,26.0,27.5
"22/08/12","19:00",1.4,28.5,87.3,1000.5,246.6,1.0,3.5,201.3,0.13,26.2,27.4
"22/08/12","20:00",0.2,27.4,90.1,1000.5,309.0,0.6,1.9,345.1,0.00,25.7,27.3
"22/08/12","21:00",0.0,26.8,91.6,1001.5,309.7,0.7,1.9,310.0,0.00,25.4,27.3
"22/08/12","22:00",0.0,26.2,92.5,1002.2,331.9,0.7,1.4,337.0,0.00,24.9,27.0
"22/08/12","23:00",0.0,25.6,93.1,1001.5,330.2,1.1,2.1,345.3,0.00,24.4,26.9
"22/08/12","24:00",0.0,25.4,93.6,1001.9,313.2,0.6,1.6,266.5,0.00,24.3,26.8
"22/08/13","01:00",0.0,25.6,93.8,1001.5,309.6,0.8,2.0,262.7,0.00,24.6,26.8
"22/08/13","02:00",0.0,25.5,94.0,1001.5,324.4,1.1,2.0,330.7,0.00,24.5,26.6
"22/08/13","03:00",0.0,25.4,94.1,1001.2,315.3,1.0,2.0,329.5,0.00,24.4,26.4
"22/08/13","04:00",0.0,25.5,94.2,1001.2,312.4,1.0,1.8,326.6,0.00,24.5,26.4
"22/08/13","05:00",0.0,25.4,93.9,1001.2,322.9,1.0,1.8,299.1,0.00,24.4,26.4
"22/08/13","06:00",0.0,25.8,93.4,1001.2,276.0,0.3,2.0,351.0,0.00,24.7,26.2
"22/08/13","07:00",0.0,26.8,90.8,1001.0,337.4,1.1,2.2,348.8,0.06,25.2,26.3
"22/08/13","08:00",0.0,30.2,74.3,1001.0,323.4,0.5,1.8,6.4,0.56,25.2,26.3
"22/08/13","09:00",0.0,30.8,71.8,1001.5,123.4,0.7,1.8,298.7,0.87,25.2,26.2
"22/08/13","10:00",0.0,30.6,70.4,1001.0,95.1,1.1,3.3,128.5,1.21,24.6,26.4
"22/08/13","11:00",0.0,33.4,64.4,1002.4,99.9,1.2,4.7,359.8,2.58,25.8,26.6
"22/08/13","12:00",0.0,33.8,61.0,1002.2,166.0,1.6,4.3,216.4,3.21,25.3,26.8
"22/08/13","13:00",0.0,32.2,64.9,1000.5,203.7,1.5,4.4,221.0,1.86,24.8,27.1
"22/08/13","14:00",0.0,32.2,67.0,1001.5,353.4,1.1,3.2,30.3,1.43,25.3,27.3
"22/08/13","15:00",1.0,29.2,84.9,998.6,338.1,1.2,4.1,357.7,0.45,26.4,27.3
"22/08/13","16:00",0.6,28.6,84.1,999.3,359.2,2.5,6.8,11.1,1.01,25.7,27.2
"22/08/13","17:00",0.0,28.4,81.9,999.8,323.8,1.3,5.0,349.4,0.44,25.0,27.4
"22/08/13","18:00",0.0,29.2,78.1,999.6,260.7,0.8,4.2,345.1,0.46,25.0,27.3
"22/08/13","19:00",0.0,28.0,82.9,1000.0,359.8,0.8,2.5,329.3,0.04,24.9,27.4
"22/08/13","20:00",0.0,26.4,86.8,1001.2,340.2,1.0,2.1,355.1,0.00,24.1,27.1
"22/08/13","21:00",0.0,26.3,86.9,1002.6,318.8,1.1,2.4,324.9,0.00,24.0,26.9
"22/08/13","22:00",0.0,26.0,88.6,1002.2,320.5,1.2,2.1,328.4,0.00,24.0,27.0
"22/08/13","23:00",0.0,25.8,88.9,1001.9,303.9,1.1,3.6,348.4,0.00,23.9,26.9
"22/08/13","24:00",0.0,25.5,89.3,1002.2,323.9,0.8,2.6,347.1,0.00,23.6,26.7
"22/08/14","01:00",0.0,25.6,89.8,1001.9,277.0,0.6,2.0,331.1,0.00,23.8,26.6
"22/08/14","02:00",0.0,25.3,90.6,1001.5,292.9,0.8,1.9,319.5,0.00,23.7,26.5
"22/08/14","03:00",0.0,25.3,91.3,1001.9,302.7,1.1,1.8,329.5,0.00,23.8,26.5